Regional Weather Roundup
Issued by NWS

Home | Current Version | Previous Version | Text Only | Print | Product List | Glossary On
Versions: 1 2 3 4 5 6 7 8 9 10 11 12 13 14 15 16 17 18 19 20 21 22 23 24 25 26 27
000
ASUS46 KPQR 310110
RWROR

OREGON REGIONAL WEATHER ROUNDUP
NATIONAL WEATHER SERVICE PORTLAND OR
600 PM PDT SAT JUL 30 2016

NOTE: "FAIR" INDICATES FEW OR NO CLOUDS BELOW 12,000 FEET WITH
NO SIGNIFICANT WEATHER AND/OR OBSTRUCTIONS TO VISIBILITY.

ORZ001>013-310200-
NORTHWEST OREGON


CITY           SKY/WX    TMP DP  RH WIND       PRES   REMARKS
ASTORIA        PTSUNNY   64  53  67 NW16      30.05S
NEWPORT        SUNNY     63  54  72 N15G21    30.06S
PORTLAND       SUNNY     78  50  37 NW14G24   29.94S
VANCOUVER WA   SUNNY     77  49  37 NW12G18   29.94S
SCAPPOOSE      SUNNY     75  49  39 W10G20    29.95S
HILLSBORO      SUNNY     76  48  37 NW16G25   29.95S
AURORA         SUNNY     80  45  28 N15       29.94S
MCMINNVILLE    SUNNY     80  54  40 SW8       29.94S
SALEM          SUNNY     81  52  36 NW13      29.92F
CORVALLIS        N/A     81  52  36 NW15      29.95S
EUGENE         SUNNY     84  49  29 N13       29.92F
$$

ORZ021-028-310200-
SOUTHWEST OREGON


CITY           SKY/WX    TMP DP  RH WIND       PRES   REMARKS
NORTH BEND     SUNNY     64  54  68 N28G36    30.00F
BROOKINGS      SUNNY     70  56  61 SE7       29.79S
ROSEBURG       SUNNY     88  44  21 N10       29.87S
SEXTON SUMMIT  SUNNY     74  40  29 VRB7G22   29.99S
MEDFORD        SUNNY     94  44  17 N16       29.80R HX  90
$$

ORZ014>016-041-310200-
COLUMBIA GORGE


CITY           SKY/WX    TMP DP  RH WIND       PRES   REMARKS
TROUTDALE      SUNNY     81  49  32 VRB6      29.92F
THE DALLES     SUNNY     83  47  28 NW28G37   29.79S
$$

ORZ029>031-041-044-049-050-061>064-502-503-505>511-310200-
EASTERN OREGON


CITY           SKY/WX    TMP DP  RH WIND       PRES   REMARKS
REDMOND        SUNNY     86  28  12 NW16G25   29.90R
BEND           SUNNY     84  37  18 NW15G25   29.91S
PRINEVILLE     SUNNY     84  32  15 N15       29.91R
KLAMATH FALLS  SUNNY     91  50  24 NW17G23   29.92S
LAKEVIEW       MOSUNNY  N/A N/A N/A W15       29.95S
HERMISTON      SUNNY     92  35  13 W23G33    29.68S
PENDLETON      SUNNY     92  20   7 W28G35    29.74S
JOHN DAY       SUNNY     91  29  11 NW13G23   29.87S
MEACHAM        NOT AVBL
LA GRANDE        N/A     90  39  17 NW17      29.81
BAKER CITY     SUNNY     89  36  15 N12G20    29.84S
BURNS          SUNNY     93  24   8 W14G20    29.88F
ROME             N/A     99  39  12 W16G22    29.82F HX  94
ONTARIO        SUNNY    103  28   7 NW9       29.69F HX  96
$$




USA.gov is the U.S. government's official web portal to all federal, state and local government web resources and services.